• In Deutschland
  • Länderverzeichnis
  • Für 7 Tage
  • Wassertemperatur
  • Satellitenkarten
  • Wetterkarte
  • Widgets
  • user-avatar
    Anmelden

    Stündliche Wetter Pabna

    Heute, 25 September, Montag

    Zeit Temperatur Niederschläge Wind Luftdruck Luftfeuchtigkeit
    00:00 +31°C° 0 mm 3 m/S 751 mmHg 76%
    01:00 +31°C° 0,2 mm 3 m/S 751 mmHg 78%
    02:00 +30°C° 0,2 mm 3 m/S 750 mmHg 79%
    03:00 +30°C° 0,2 mm 3 m/S 750 mmHg 81%
    04:00 +30°C° 0,6 mm 3 m/S 750 mmHg 83%
    05:00 +30°C° 0,6 mm 2 m/S 751 mmHg 84%
    06:00 +29°C° 0,6 mm 2 m/S 751 mmHg 86%
    07:00 +31°C° 0,8 mm 2 m/S 751 mmHg 80%
    08:00 +32°C° 0,8 mm 2 m/S 752 mmHg 74%
    09:00 +35°C° 0,8 mm 3 m/S 752 mmHg 68%
    10:00 +36°C° 0,3 mm 2 m/S 752 mmHg 63%
    11:00 +36°C° 0,3 mm 2 m/S 751 mmHg 58%
    12:00 +36°C° 0,3 mm 1 m/S 751 mmHg 54%
    13:00 +36°C° 0 mm 1 m/S 750 mmHg 53%
    14:00 +37°C° 0 mm 1 m/S 749 mmHg 53%
    15:00 +37°C° 0 mm 1 m/S 748 mmHg 53%
    16:00 +36°C° 0 mm 1 m/S 748 mmHg 56%
    17:00 +35°C° 0 mm 1 m/S 748 mmHg 59%
    18:00 +32°C° 0 mm 0 m/S 748 mmHg 62%
    19:00 +34°C° 0 mm 1 m/S 748 mmHg 63%
    20:00 +34°C° 0 mm 1 m/S 749 mmHg 64%
    21:00 +33°C° 0 mm 1 m/S 750 mmHg 65%
    22:00 +33°C° 0 mm 1 m/S 750 mmHg 66%
    23:00 +33°C° 0 mm 1 m/S 750 mmHg 68%

    Morgen, 26 September, Dienstag

    Zeit Temperatur Niederschläge Wind Luftdruck Luftfeuchtigkeit
    00:00 +33°C° 0 mm 1 m/S 750 mmHg 69%
    01:00 +32°C° 0,4 mm 2 m/S 750 mmHg 72%
    02:00 +32°C° 0,4 mm 2 m/S 750 mmHg 74%
    03:00 +31°C° 0,4 mm 2 m/S 750 mmHg 77%
    04:00 +31°C° 0,4 mm 2 m/S 750 mmHg 79%
    05:00 +31°C° 0,4 mm 2 m/S 750 mmHg 80%
    06:00 +30°C° 0,4 mm 2 m/S 750 mmHg 82%
    07:00 +32°C° 0,4 mm 2 m/S 751 mmHg 76%
    08:00 +34°C° 0,4 mm 2 m/S 751 mmHg 70%
    09:00 +34°C° 0,4 mm 1 m/S 752 mmHg 64%
    10:00 +35°C° 0,1 mm 1 m/S 752 mmHg 60%
    11:00 +36°C° 0,1 mm 1 m/S 751 mmHg 56%
    12:00 +35°C° 0,1 mm 0 m/S 751 mmHg 52%
    13:00 +35°C° 0 mm 0 m/S 750 mmHg 53%
    14:00 +35°C° 0 mm 0 m/S 749 mmHg 54%
    15:00 +37°C° 0 mm 1 m/S 749 mmHg 54%
    16:00 +36°C° 0 mm 1 m/S 749 mmHg 57%
    17:00 +35°C° 0 mm 1 m/S 749 mmHg 59%
    18:00 +35°C° 0 mm 1 m/S 749 mmHg 62%
    19:00 +34°C° 0 mm 1 m/S 750 mmHg 64%
    20:00 +34°C° 0 mm 1 m/S 750 mmHg 65%
    21:00 +34°C° 0 mm 2 m/S 751 mmHg 67%
    22:00 +34°C° 0 mm 2 m/S 751 mmHg 69%
    23:00 +32°C° 0 mm 2 m/S 751 mmHg 70%

    übermorgen, 27 September, Mittwoch

    Zeit Temperatur Niederschläge Wind Luftdruck Luftfeuchtigkeit
    00:00 +32°C° 0 mm 2 m/S 751 mmHg 72%
    01:00 +32°C° 0,1 mm 2 m/S 751 mmHg 74%
    02:00 +31°C° 0,1 mm 2 m/S 750 mmHg 76%
    03:00 +31°C° 0,1 mm 2 m/S 750 mmHg 78%
    04:00 +31°C° 0,5 mm 2 m/S 750 mmHg 79%
    05:00 +30°C° 0,5 mm 2 m/S 751 mmHg 81%
    06:00 +30°C° 0,5 mm 2 m/S 751 mmHg 83%
    07:00 +31°C° 0,9 mm 2 m/S 751 mmHg 79%
    08:00 +32°C° 0,9 mm 1 m/S 752 mmHg 76%
    09:00 +33°C° 0,9 mm 1 m/S 753 mmHg 72%
    10:00 +34°C° 0,4 mm 1 m/S 752 mmHg 67%
    11:00 +35°C° 0,4 mm 1 m/S 752 mmHg 62%
    12:00 +33°C° 0,4 mm 0 m/S 752 mmHg 58%
    13:00 +34°C° 0 mm 0 m/S 751 mmHg 56%
    14:00 +34°C° 0 mm 0 m/S 750 mmHg 54%
    15:00 +34°C° 0 mm 0 m/S 749 mmHg 53%
    16:00 +36°C° 0 mm 1 m/S 749 mmHg 57%
    17:00 +35°C° 0 mm 1 m/S 749 mmHg 61%
    18:00 +34°C° 0 mm 1 m/S 749 mmHg 65%
    19:00 +33°C° 0 mm 1 m/S 750 mmHg 67%
    20:00 +33°C° 0 mm 1 m/S 751 mmHg 69%
    21:00 +32°C° 0 mm 2 m/S 751 mmHg 71%
    22:00 +32°C° 0,1 mm 2 m/S 751 mmHg 74%
    23:00 +31°C° 0,1 mm 2 m/S 751 mmHg 76%

    28 September, Donnerstag

    Zeit Temperatur Niederschläge Wind Luftdruck Luftfeuchtigkeit
    00:00 +31°C° 0,1 mm 2 m/S 751 mmHg 78%
    01:00 +31°C° 0,6 mm 2 m/S 751 mmHg 79%
    02:00 +30°C° 0,6 mm 2 m/S 750 mmHg 81%
    03:00 +30°C° 0,6 mm 1 m/S 750 mmHg 82%
    04:00 +30°C° 0,9 mm 1 m/S 750 mmHg 83%
    05:00 +30°C° 0,9 mm 1 m/S 750 mmHg 83%
    06:00 +30°C° 0,9 mm 1 m/S 751 mmHg 84%
    07:00 +31°C° 1 mm 1 m/S 751 mmHg 81%
    08:00 +31°C° 1 mm 1 m/S 752 mmHg 78%
    09:00 +32°C° 1 mm 1 m/S 753 mmHg 76%
    10:00 +33°C° 0 mm 1 m/S 752 mmHg 71%
    11:00 +34°C° 0 mm 1 m/S 752 mmHg 66%
    12:00 +35°C° 0 mm 1 m/S 751 mmHg 60%
    13:00 +35°C° 0,4 mm 1 m/S 750 mmHg 59%
    14:00 +35°C° 0,4 mm 1 m/S 750 mmHg 58%
    15:00 +36°C° 0,4 mm 1 m/S 749 mmHg 57%
    16:00 +35°C° 0,4 mm 1 m/S 749 mmHg 61%
    17:00 +35°C° 0,4 mm 2 m/S 749 mmHg 65%
    18:00 +34°C° 0,4 mm 2 m/S 749 mmHg 70%
    19:00 +32°C° 1 mm 2 m/S 750 mmHg 73%
    20:00 +31°C° 1 mm 2 m/S 751 mmHg 77%
    21:00 +31°C° 1 mm 2 m/S 751 mmHg 80%
    22:00 +30°C° 1,8 mm 2 m/S 751 mmHg 82%
    23:00 +30°C° 1,8 mm 2 m/S 751 mmHg 83%

    29 September, Freitag

    Zeit Temperatur Niederschläge Wind Luftdruck Luftfeuchtigkeit
    00:00 +30°C° 1,8 mm 2 m/S 751 mmHg 85%
    01:00 +30°C° 1 mm 2 m/S 751 mmHg 85%
    02:00 +29°C° 1 mm 2 m/S 751 mmHg 85%
    03:00 +29°C° 1 mm 2 m/S 750 mmHg 86%
    04:00 +29°C° 0,9 mm 2 m/S 751 mmHg 86%
    05:00 +29°C° 0,9 mm 1 m/S 751 mmHg 86%
    06:00 +29°C° 0,9 mm 1 m/S 751 mmHg 86%
    07:00 +29°C° 0,4 mm 1 m/S 752 mmHg 84%
    08:00 +30°C° 0,4 mm 1 m/S 752 mmHg 82%
    09:00 +31°C° 0,4 mm 1 m/S 753 mmHg 80%
    10:00 +31°C° 1,2 mm 1 m/S 752 mmHg 75%
    11:00 +32°C° 1,2 mm 1 m/S 752 mmHg 71%
    12:00 +33°C° 1,2 mm 1 m/S 751 mmHg 66%
    13:00 +33°C° 0,3 mm 1 m/S 750 mmHg 65%
    14:00 +34°C° 0,3 mm 1 m/S 750 mmHg 64%
    15:00 +34°C° 0,3 mm 1 m/S 749 mmHg 62%
    16:00 +33°C° 0,7 mm 1 m/S 749 mmHg 67%
    17:00 +32°C° 0,7 mm 1 m/S 749 mmHg 72%
    18:00 +31°C° 0,7 mm 1 m/S 750 mmHg 77%
    19:00 +31°C° 0,4 mm 1 m/S 750 mmHg 79%
    20:00 +30°C° 0,4 mm 1 m/S 751 mmHg 80%
    21:00 +30°C° 0,4 mm 1 m/S 751 mmHg 82%
    22:00 +30°C° 0,6 mm 1 m/S 751 mmHg 83%
    23:00 +29°C° 0,6 mm 1 m/S 751 mmHg 85%

    30 September, Samstag

    Zeit Temperatur Niederschläge Wind Luftdruck Luftfeuchtigkeit
    00:00 +29°C° 0,6 mm 1 m/S 751 mmHg 86%
    01:00 +29°C° 1 mm 1 m/S 751 mmHg 87%
    02:00 +29°C° 1 mm 1 m/S 751 mmHg 88%
    03:00 +28°C° 1 mm 1 m/S 751 mmHg 89%
    04:00 +28°C° 1,4 mm 1 m/S 752 mmHg 89%
    05:00 +28°C° 1,4 mm 1 m/S 752 mmHg 90%
    06:00 +28°C° 1,4 mm 1 m/S 752 mmHg 90%
    07:00 +29°C° 0,4 mm 1 m/S 753 mmHg 88%
    08:00 +29°C° 0,4 mm 1 m/S 753 mmHg 86%
    09:00 +29°C° 0,4 mm 1 m/S 754 mmHg 84%
    10:00 +30°C° 0,2 mm 1 m/S 753 mmHg 80%
    11:00 +31°C° 0,2 mm 1 m/S 753 mmHg 76%
    12:00 +32°C° 0,2 mm 1 m/S 752 mmHg 72%
    13:00 +32°C° 0,6 mm 1 m/S 752 mmHg 71%
    14:00 +34°C° 0,6 mm 2 m/S 751 mmHg 69%
    15:00 +34°C° 0,6 mm 2 m/S 750 mmHg 68%
    16:00 +32°C° 1,4 mm 2 m/S 750 mmHg 73%
    17:00 +31°C° 1,4 mm 2 m/S 751 mmHg 78%
    18:00 +30°C° 1,4 mm 2 m/S 751 mmHg 83%
    19:00 +30°C° 0,7 mm 1 m/S 751 mmHg 84%
    20:00 +30°C° 0,7 mm 1 m/S 752 mmHg 85%
    21:00 +30°C° 0,7 mm 1 m/S 753 mmHg 87%
    22:00 +29°C° 1,2 mm 1 m/S 753 mmHg 87%
    23:00 +29°C° 1,2 mm 1 m/S 752 mmHg 88%
    Mehr zeigen